Toms River, NJ

12:47 PM EDT on October 14, 2019 (GMT -0400)
Miller

Weather History for KMJX - August, 2019

Change the Weather History Date:

Sunday, August 18, 2019

  Actual Average Record
Temperature  
Mean Temperature 83 °F -  
Max Temperature 91 °F 84 °F 94 °F (1968)
Min Temperature 73 °F 62 °F 49 °F (1979)
Cooling Degree Days 18    
Growing Degree Days 33 (Base 50)    
Moisture  
Dew Point 79 °F    
Average Humidity 80    
Maximum Humidity 94    
Minimum Humidity 66    
Precipitation  
Precipitation 0.00 in - - ()
Sea Level Pressure  
Sea Level Pressure 30.01 in    
Wind  
Wind Speed 1 mph (South)    
Max Wind Speed 12 mph    
Max Gust Speed -    
Visibility 7 miles    
Events Fog , Thunderstorm    
Averages and records for this station are not official NWS values.
T = Trace of Precipitation, MM = Missing Value Source: NWS Daily Summary

Daily Weather History Graph

Daily Weather History Graph

Search for Another Location

Airport or City:

Astronomy

Aug. 18, 2019 Rise Set
Actual Time 6:11 AM EDT 7:49 PM EDT
Civil Twilight 5:42 AM EDT 8:18 PM EDT
Nautical Twilight 5:07 AM EDT 8:53 PM EDT
Astronomical Twilight 4:30 AM EDT 9:29 PM EDT
Moon 9:43 PM EDT (8/18) 8:54 AM EDT (8/18)
Length of Visible Light 14h 35m
Length of Day
13h 38m
Waning Gibbous, 91% of the Moon is Illuminated
Aug 18
Waning Gibbous
Aug 23
Last Quarter
Aug 30
New
Sep 5
First Quarter
Sep 14
Full

Hourly Weather History & Observations

Time (EDT) Temp. Heat Index Dew Point Humidity Pressure Visibility Wind Dir Wind Speed Gust Speed Precip Events Conditions
12:56 AM - - - N/A% 29.99 in 6.0 mi Calm Calm - N/A   Haze
1:56 AM - - - N/A% 30.00 in 6.0 mi Calm Calm - N/A   Haze
2:56 AM - - - N/A% 29.99 in 9.0 mi Calm Calm - N/A   Clear
3:40 AM - - - N/A% 29.99 in 7.0 mi Calm Calm - N/A   Scattered Clouds
3:48 AM - - - N/A% 29.99 in 7.0 mi Calm Calm - N/A   Mostly Cloudy
3:56 AM - - - N/A% 29.99 in 8.0 mi South 3.5 mph - N/A   Mostly Cloudy
4:43 AM - - - N/A% 29.99 in 8.0 mi Calm Calm - N/A   Scattered Clouds
4:56 AM - - - N/A% 29.99 in 9.0 mi Calm Calm - N/A   Partly Cloudy
5:25 AM - - - N/A% 30.00 in 8.0 mi Calm Calm - N/A   Mostly Cloudy
5:40 AM - - - N/A% 30.00 in 1.8 mi Calm Calm - N/A   Overcast
5:49 AM - - - N/A% 30.00 in 4.0 mi Calm Calm - N/A   Haze
5:56 AM - - - N/A% 30.00 in 2.0 mi Calm Calm - N/A   Overcast
6:00 AM - - - N/A% 30.01 in 1.0 mi Calm Calm - N/A   Overcast
6:07 AM - - - N/A% 30.01 in 0.8 mi Calm Calm - N/A   Overcast
6:25 AM - - - N/A% 30.01 in 0.2 mi Calm Calm - N/A Fog Fog
6:38 AM - - - N/A% 30.02 in 0.8 mi Calm Calm - N/A   Overcast
6:41 AM - - - N/A% 30.02 in 1.2 mi Calm Calm - N/A   Overcast
6:46 AM - - - N/A% 30.02 in 3.0 mi Calm Calm - N/A   Overcast
6:51 AM - - - N/A% 30.02 in 2.5 mi Calm Calm - N/A   Overcast
6:54 AM - - - N/A% 30.02 in 1.0 mi Calm Calm - N/A   Overcast
6:56 AM - - - N/A% 30.02 in 1.0 mi Calm Calm - N/A   Overcast
7:25 AM - - - N/A% 30.03 in 1.5 mi Calm Calm - N/A   Mostly Cloudy
7:33 AM - - - N/A% 30.04 in 2.5 mi Calm Calm - N/A   Mostly Cloudy
7:48 AM - - - N/A% 30.04 in 3.0 mi Calm Calm - N/A   Mostly Cloudy
7:56 AM - - - N/A% 30.04 in 6.0 mi Calm Calm - N/A   Haze
8:56 AM 79.0 °F - - N/A% 30.04 in 10.0 mi Calm Calm - N/A   Partly Cloudy
9:12 AM 80.6 °F - - N/A% 30.03 in 10.0 mi SW 4.6 mph - N/A   Mostly Cloudy
9:38 AM 82.4 °F - - N/A% 30.03 in 10.0 mi SSE 4.6 mph - N/A   Scattered Clouds
9:56 AM 82.9 °F - - N/A% 30.03 in 10.0 mi Variable 3.5 mph - N/A   Partly Cloudy
10:56 AM 86.0 °F 99.3 °F 79.0 °F 79% 30.03 in 10.0 mi SSE 4.6 mph - N/A   Clear
11:56 AM 88.0 °F 101.3 °F 78.1 °F 72% 30.03 in 10.0 mi Variable 4.6 mph - N/A   Clear
12:56 PM 91.0 °F 106.2 °F 78.1 °F 66% 30.01 in 10.0 mi SW 4.6 mph - N/A   Partly Cloudy
1:56 PM 90.0 °F 104.5 °F 78.1 °F 68% 30.02 in 10.0 mi SSE 11.5 mph - N/A Thunderstorm Scattered Clouds
2:15 PM 87.8 °F 104.9 °F 80.6 °F 79% 30.02 in 10.0 mi SSE 9.2 mph - N/A   Mostly Cloudy
2:37 PM 87.8 °F 102.5 °F 78.8 °F 75% 30.02 in 10.0 mi South 11.5 mph - N/A Thunderstorm Partly Cloudy
2:56 PM 87.1 °F 101.5 °F 79.0 °F 77% 30.01 in 10.0 mi SSE 11.5 mph - N/A   Scattered Clouds
3:56 PM 80.1 °F 86.4 °F 78.1 °F 94% 30.01 in 10.0 mi South 5.8 mph - 0.00 in   Clear
4:56 PM 82.0 °F 90.2 °F 77.0 °F 85% 29.99 in 10.0 mi South 3.5 mph - 0.00 in   Clear
5:56 PM 84.9 °F 101.8 °F 82.0 °F 91% 29.99 in 10.0 mi SSW 5.8 mph - N/A   Clear
6:56 PM 82.9 °F 95.9 °F 81.0 °F 94% 29.98 in 10.0 mi South 8.1 mph - N/A   Clear
7:56 PM 80.1 °F - - N/A% 29.99 in 10.0 mi SSE 3.5 mph - N/A   Clear
8:56 PM 77.0 °F - - N/A% 30.01 in 9.0 mi Calm Calm - N/A   Clear
9:56 PM 75.9 °F - - N/A% 30.03 in 10.0 mi Calm Calm - N/A   Partly Cloudy
10:56 PM 73.9 °F - - N/A% 30.02 in 10.0 mi NNE 5.8 mph - N/A   Partly Cloudy
11:10 PM - - - N/A% 30.01 in 10.0 mi Calm Calm - N/A   Mostly Cloudy
11:56 PM - - - N/A% 30.00 in 9.0 mi Calm Calm - N/A   Overcast